Satellite-Ground Cal/Val Region Overpasses Predictions

Prediction of Satellite NPP Overpassing Cal/Val Region: PacNW

Region Location: (Latitude: 10.00, Longitude: 139.50) to (Latitude: 22.70, Longitude: 165.60).

Table of predicted overpasses for the next 14.0 days since TLE Epoch: 8/28/2015
Interval Starting Time Starting Location Ending Time Ending Location
1 08/28/2015 15:21:09 ( 22.66, 155.52) 08/28/2015 15:24:44 ( 10.04, 152.52)
2 08/29/2015 02:30:12 ( 10.01, 163.07) 08/29/2015 02:33:48 ( 22.69, 160.06)
3 08/29/2015 15:02:05 ( 22.69, 160.29) 08/29/2015 15:05:41 ( 10.01, 157.28)
4 08/30/2015 02:13:52 ( 19.55, 165.59) 08/30/2015 02:14:45 ( 22.66, 164.83)
5 08/30/2015 03:52:40 ( 10.05, 142.44) 08/30/2015 03:56:11 ( 22.43, 139.51)
6 08/30/2015 14:43:03 ( 22.66, 165.04) 08/30/2015 14:46:38 ( 10.04, 162.04)
7 08/30/2015 16:24:33 ( 22.65, 139.66) 08/30/2015 16:24:43 ( 22.07, 139.51)
8 08/31/2015 03:33:37 ( 10.02, 147.21) 08/31/2015 03:37:13 ( 22.70, 144.20)
9 08/31/2015 16:05:29 ( 22.68, 144.43) 08/31/2015 16:09:04 ( 10.06, 141.43)
10 09/01/2015 03:14:34 ( 10.05, 151.96) 09/01/2015 03:18:09 ( 22.67, 148.97)
11 09/01/2015 15:46:27 ( 22.65, 149.18) 09/01/2015 15:50:02 ( 10.03, 146.18)
12 09/02/2015 02:55:31 ( 10.02, 156.73) 09/02/2015 02:59:06 ( 22.64, 153.73)
13 09/02/2015 15:27:23 ( 22.68, 153.94) 09/02/2015 15:30:58 ( 10.05, 150.95)
14 09/03/2015 02:36:28 ( 10.05, 161.48) 09/03/2015 02:40:03 ( 22.67, 158.48)
15 09/03/2015 15:08:21 ( 22.65, 158.70) 09/03/2015 15:11:56 ( 10.02, 155.70)
16 09/04/2015 02:18:13 ( 12.84, 165.60) 09/04/2015 02:21:00 ( 22.65, 163.25)
17 09/04/2015 03:58:55 ( 10.03, 140.87) 09/04/2015 04:00:35 ( 15.91, 139.51)
18 09/04/2015 14:49:17 ( 22.67, 163.46) 09/04/2015 14:52:52 ( 10.05, 160.47)
19 09/05/2015 03:39:51 ( 10.01, 145.63) 09/05/2015 03:43:27 ( 22.69, 142.62)
20 09/05/2015 14:33:22 ( 11.66, 165.60) 09/05/2015 14:33:50 ( 10.02, 165.22)
21 09/05/2015 16:11:44 ( 22.69, 142.85) 09/05/2015 16:15:20 ( 10.01, 139.84)
22 09/06/2015 03:20:49 ( 10.04, 150.39) 09/06/2015 03:24:24 ( 22.66, 147.39)
23 09/06/2015 15:52:41 ( 22.66, 147.60) 09/06/2015 15:56:16 ( 10.03, 144.61)
24 09/07/2015 03:01:45 ( 10.01, 155.15) 09/07/2015 03:05:21 ( 22.69, 152.14)
25 09/07/2015 15:33:38 ( 22.68, 152.37) 09/07/2015 15:37:14 ( 10.00, 149.36)
26 09/08/2015 02:42:43 ( 10.05, 159.90) 09/08/2015 02:46:18 ( 22.67, 156.91)
27 09/08/2015 15:14:36 ( 22.65, 157.12) 09/08/2015 15:18:11 ( 10.03, 154.12)
28 09/09/2015 02:23:39 ( 10.02, 164.67) 09/09/2015 02:27:14 ( 22.64, 161.67)
29 09/09/2015 14:55:32 ( 22.68, 161.89) 09/09/2015 14:59:07 ( 10.05, 158.89)
30 09/10/2015 03:46:06 ( 10.01, 144.06) 09/10/2015 03:49:42 ( 22.69, 141.05)
31 09/10/2015 14:37:43 ( 18.36, 165.59) 09/10/2015 14:40:05 ( 10.02, 163.64)
32 09/10/2015 16:17:59 ( 22.69, 141.27) 09/10/2015 16:20:04 ( 15.35, 139.50)


NCC Satellite Cal/Val Overpasses Prediction Service
